Satellite: NO-44
Catalog number: 26931
Epoch time:      10140.42973471
Element set:     462
Inclination:      067.0523 deg
RA of node:       275.4883 deg
Eccentricity:    0.0005717
Arg of perigee:   260.8128 deg
Mean anomaly:     099.2306 deg
Mean motion:   14.29596622 rev/day
Decay rate:      -1.23e-06 rev/day^2
Epoch rev:           45078
Checksum:              307

Satellite: SO-50
Catalog number: 27607
Epoch time:      10139.39754202
Element set:    0178
Inclination:      064.5587 deg
RA of node:       083.9612 deg
Eccentricity:    0.0034518
Arg of perigee:   090.9764 deg
Mean anomaly:     269.5289 deg
Mean motion:   14.71538189 rev/day
Decay rate:       -9.4e-07 rev/day^2
Epoch rev:           39814
Checksum:              347

Satellite: CO-55
Catalog number: 27844
Epoch time:      10139.50171133
Element set:    0850
Inclination:      098.7088 deg
RA of node:       148.8874 deg
Eccentricity:    0.0008902
Arg of perigee:   255.5480 deg
Mean anomaly:     104.4721 deg
Mean motion:   14.20707082 rev/day
Decay rate:        5.8e-07 rev/day^2
Epoch rev:           35701
Checksum:              301

Satellite: CO-57
Catalog number: 27848
Epoch time:      10139.52710910
Element set:     799
Inclination:      098.7135 deg
RA of node:       148.0017 deg
Eccentricity:    0.0008741
Arg of perigee:   260.1426 deg
Mean anomaly:     099.8759 deg
Mean motion:   14.20499719 rev/day
Decay rate:        5.8e-07 rev/day^2
Epoch rev:           35697
Checksum:              347

Satellite: AO-51
Catalog number: 28375
Epoch time:      10139.95123937
Element set:    0680
Inclination:      098.0619 deg
RA of node:       135.0583 deg
Eccentricity:    0.0083187
Arg of perigee:   182.4481 deg
Mean anomaly:     177.6295 deg
Mean motion:   14.40684752 rev/day
Decay rate:        3.6e-07 rev/day^2
Epoch rev:           30944
Checksum:              329

Satellite: GENESAT1
Catalog number: 29655
Epoch time:      10139.58208417
Element set:    0062
Inclination:      040.0169 deg
RA of node:       214.8774 deg
Eccentricity:    0.0007096
Arg of perigee:   096.0813 deg
Mean anomaly:     264.0823 deg
Mean motion:   15.88045178 rev/day
Decay rate:     8.4350e-04 rev/day^2
Epoch rev:           19543
Checksum:              308

Satellite: CP3
Catalog number: 31129
Epoch time:      10139.69145111
Element set:    0582
Inclination:      097.9405 deg
RA of node:       180.7829 deg
Eccentricity:    0.0101076
Arg of perigee:   323.0929 deg
Mean anomaly:     036.3329 deg
Mean motion:   14.52254224 rev/day
Decay rate:       1.31e-06 rev/day^2
Epoch rev:           16372
Checksum:              278

Satellite: CO-65
Catalog number: 32785
Epoch time:      10140.88127426
Element set:     685
Inclination:      097.8979 deg
RA of node:       206.1829 deg
Eccentricity:    0.0015583
Arg of perigee:   018.0034 deg
Mean anomaly:     342.1723 deg
Mean motion:   14.81653017 rev/day
Decay rate:       4.01e-06 rev/day^2
Epoch rev:           11144
Checksum:              298

Satellite: KKS-1
Catalog number: 33493
Epoch time:      10140.75611959
Element set:     499
Inclination:      098.0831 deg
RA of node:       260.0179 deg
Eccentricity:    0.0018960
Arg of perigee:   227.6600 deg
Mean anomaly:     132.3013 deg
Mean motion:   14.80983198 rev/day
Decay rate:       3.70e-06 rev/day^2
Epoch rev:            7142
Checksum:              293

Satellite: SOHLA-1
Catalog number: 33496
Epoch time:      10140.44766518
Element set:     107
Inclination:      098.0565 deg
RA of node:       249.8854 deg
Eccentricity:    0.0005480
Arg of perigee:   295.3407 deg
Mean anomaly:     064.7233 deg
Mean motion:   14.69493595 rev/day
Decay rate:       1.23e-06 rev/day^2
Epoch rev:            7080
Checksum:              312

/EX
SB KEPS @ AMSAT  $ORB10140.W
Orbital Elements  10140.WEATHER

HR AMSAT ORBITAL ELEMENTS FOR WEATHER SATELLITES
FROM WA5QGD FORT WORTH,TX May 20, 2010
Send Subscribe/unsubscribe to KEPS at http://www.amsat.org/mailman/listinfo/kep
BID: ORB10140.W
TO ALL RADIO AMATEURS BT

Satellite: NOAA-10
Catalog number: 16969
Epoch time:      10139.76392665
Element set:    0071
Inclination:      098.6578 deg
RA of node:       168.9959 deg
Eccentricity:    0.0011252
Arg of perigee:   297.2383 deg
Mean anomaly:     062.7658 deg
Mean motion:   14.27415746 rev/day
Decay rate:      -1.02e-06 rev/day^2
Epoch rev:           23152
Checksum:              335

Satellite: NOAA-11
Catalog number: 19531
Epoch time:      10139.74230094
Element set:    0083
Inclination:      098.7689 deg
RA of node:       229.2494 deg
Eccentricity:    0.0010756
Arg of perigee:   227.1052 deg
Mean anomaly:     132.9230 deg
Mean motion:   14.14925090 rev/day
Decay rate:       -5.0e-07 rev/day^2
Epoch rev:           11711
Checksum:              275

Satellite: NOAA-12
Catalog number: 21263
Epoch time:      10139.85642063
Element set:    0570
Inclination:      098.7652 deg
RA of node:       153.0190 deg
Eccentricity:    0.0011348
Arg of perigee:   248.1888 deg
Mean anomaly:     111.8080 deg
Mean motion:   14.25633186 rev/day
Decay rate:        2.2e-07 rev/day^2
Epoch rev:           98836
Checksum:              296

